Regional Weather Roundup
Issued by NWS

Home | Current Version | Previous Version | Graphics & Text | Print | Product List | Glossary On
Versions: 1 2 3 4 5 6 7 8 9 10 11 12 13 14 15 16 17 18 19 20 21 22 23 24 25 26 27
000
ASUS45 KBOU 171607
RWRCO

WEATHER ROUNDUP FOR COLORADO
NATIONAL WEATHER SERVICE DENVER/BOULDER CO
1000 AM MDT TUE OCT 17 2017

NOTE: "FAIR" INDICATES FEW OR NO CLOUDS BELOW 12000 FEET WITH NO
SIGNIFICANT WEATHER AND/OR OBSTRUCTIONS TO VISIBILITY.

COZ001>005-013-030-031-171700-
...NORTHWEST COLORADO...

CITY           SKY/WX    TMP DP  RH WIND       PRES   REMARKS
CRAIG          FAIR      38  19  46 CALM      30.41F
HAYDEN         FAIR      44  12  27 E13       30.43S
MEEKER         FAIR      44  16  32 CALM      30.41F
RABBIT EARS PA FAIR      41   3  20 W3        30.54R
STEAMBOAT SPGS FAIR      38  15  39 CALM      30.43S
WALDEN         FAIR      43  10  26 S5        30.44S
$$

COZ006>008-011-171700-
...WEST CENTRAL VALLEYS...

CITY           SKY/WX    TMP DP  RH WIND       PRES   REMARKS
GRAND JUNCTION FAIR      49  15  25 SE5       30.39S
MONTROSE       FAIR      49  11  21 CALM      30.43F
EAGLE          FAIR      33  11  39 CALM      30.50F
RIFLE          FAIR      39  15  37 CALM      30.43F
DELTA          FAIR      46  15  28 CALM      30.42F
NUCLA          NOT AVBL
$$

COZ017>023-064>068-171700-
...SOUTHWEST COLORADO...

CITY           SKY/WX    TMP DP  RH WIND       PRES   REMARKS
DURANGO        FAIR      49  18  29 CALM      30.42S
CORTEZ         FAIR      51  15  23 CALM      30.40F
PAGOSA SPRINGS FAIR      51  14  23 CALM      30.46S
TELLURIDE      NOT AVBL
WOLF CREEK PAS FAIR      43   0  16 CALM      30.68F
$$

COZ009-010-012-014-032>034-037-058>063-171700-
...CENTRAL COLORADO...

CITY           SKY/WX    TMP DP  RH WIND       PRES   REMARKS
ASPEN          FAIR      48   5  17 CALM      30.44F
BUENA VISTA    FAIR      49   2  14 CALM      30.45S
COPPER MTN     FAIR      41 -15   9 W7G16     30.62S
BERTHOUD PASS  FAIR      32  23  69 W18G26    30.62R WCI  20
COTTONWOOD PAS FAIR      54 -13   6 NW5       30.52R
GUNNISON       FAIR      32   7  35 CALM      30.54F
KREMMLING      FAIR      34  19  55 CALM      30.50F
LEADVILLE      FAIR      45   2  17 W3        30.51S
MONARCH PASS   FAIR      36  -8  15 W23       30.72S
SALIDA         NOT AVBL
SUNLIGHT       FAIR      39   0  19 SW7       30.61R
WILKERSON PASS FAIR      43 -15   8 W8        30.59S
$$

COZ069>075-171700-
...SAN LUIS VALLEY/SANGRE DE CRISTO MOUNTAINS...

CITY           SKY/WX    TMP DP  RH WIND       PRES   REMARKS
ALAMOSA        FAIR      44  17  33 VRB3      30.46F
DEL NORTE      FAIR      49  13  24 W13       30.48S
LA VETA PASS   FAIR      45  14  29 SW20      30.62S
SAGUACHE       FAIR      50  10  20 NW13      30.47S
$$

COZ035-036-038>040-171700-
...NORTHERN COLORADO FRONT RANGE...

CITY           SKY/WX    TMP DP  RH WIND       PRES   REMARKS
DENVER INTL AP FAIR      62  15  16 SW12      30.25F
DMNS CITY PARK   N/A     59  14  17 SE8G15    30.26F
AURORA         MOSUNNY   61  14  16 S10       30.27F
FRONT RANGE AP MOSUNNY   66  16  14 S6        30.27S
ERIE MUNI ARPT FAIR      57  25  28 CALM      30.29F
BOULDER MUN AP FAIR      57  21  24 CALM      30.24F
CENTENNIAL     FAIR      60  22  23 E5        30.28F
BROOMFIELD     MOSUNNY   57  25  28 CALM      30.27S
FORT COLLINS   FAIR      55  25  31 CALM      30.24F
LONGMONT       FAIR      59  25  26 CALM      30.25F
$$

COZ041-046-047-076>085-087-088-171700-
...PIKES PEAK/PALMER DIVIDE AND SOUTHERN FOOTHILLS...

CITY           SKY/WX    TMP DP  RH WIND       PRES   REMARKS
COLO. SPRINGS  FAIR      65  14  14 SE6       30.32S
A. F. ACADEMY  FAIR      64  12  13 S5        30.32S
SCHRIEVER AFB  FAIR      63  13  14 SE8       30.32S
CHEYENNE MTN   FAIR      62  10  13 E7        30.30S
ELLICOTT       FAIR     N/A N/A N/A S12       30.30R
FALCON         FAIR      64  11  13 SE6       30.36S
FORT CARSON    FAIR      60  13  16 NW5       30.30S
LIMON          FAIR      62  18  18 SW3       30.27S
MONUMENT HILL  NOT AVBL
CANON CITY     SUNNY     63  14  15 W15       30.29S
WALSENBURG     FAIR      70  16  12 W15       30.30S
TRINIDAD       FAIR      61  20  20 W7        30.30S
$$

COZ042>045-048>051-090-091-171700-
...NORTHEAST COLORADO...

CITY           SKY/WX    TMP DP  RH WIND       PRES   REMARKS
GREELEY ARPT   FAIR      49  31  49 SW6       30.25F
AKRON          NOT AVBL
BURLINGTON     FAIR      69  26  20 E6        30.22R
WRAY           FAIR      61  28  29 W7        30.20S
YUMA           NOT AVBL
STERLING       FAIR      48  32  53 S9        30.20S
HOLYOKE        FAIR      63  32  31 W6        30.19S
FORT MORGAN    FAIR      52  25  35 W12       30.24S
$$

COZ086-089-092>099-171700-
...SOUTHEAST COLORADO...

CITY           SKY/WX    TMP DP  RH WIND       PRES   REMARKS
PUEBLO         FAIR      62  19  19 SW5       30.25S
LA JUNTA       FAIR      60  26  27 W5        30.23F
LAMAR          FAIR      58  29  33 W7        30.20S
SPRINGFIELD      N/A     67  29  24 NE13      30.20R
$$




USA.gov is the U.S. government's official web portal to all federal, state and local government web resources and services.